Powrót do katalogu

STARLINK-11299

AktywnyŁącznośćVLEO
NORAD 61058·PAYLOAD·🇺🇸 United States

Wystrzelony Sep 13, 2024 z Vandenberg Space Force Base

Loading…

Następne Przeloty (najbliższe 24 godziny)

TLE

ŚwieżeSource: CelesTrak SupGP

Epoka: Sep 14, 2026, 21:27 UTC

1 61058C 24164J   26257.89423611 -.00044609  00000+0 -36743-3 0  2570
2 61058  53.1569  98.8585 0001232  77.2051 207.4147 15.69733233    12

Śledź STARLINK-11299 w czasie rzeczywistym z AllMySat

Download on the App Store